User: anonymous   Login
Location: Antioch Baptist Church
(32.7160°N, 96.7483°W)
Time: 00:31:02
(UTC+00:00)
Language:

SL-16 R/B - Orbit

View from above orbital plane
View from above orbital plane
View from above satellite
View from above satellite

Ground track
Ground track

The orbit data is extracted from the following two-line orbital elements,

1 28353U 04021B   24108.62594341  .00000434  00000-0  25167-3 0  9992
2 28353  71.0003 242.5357 0005023 346.0500  14.0482 14.14395755 25112
Epoch (UTC): 17 April 2024 15:01:21
Eccentricity: 0.0005023
inclination: 71.0003°
perigee height: 841 km
apogee height: 848 km
right ascension of ascending node: 242.5357°
argument of perigee: 346.0500°
revolutions per day: 14.14395755
mean anomaly at epoch: 14.0482°
orbit number at epoch: 2511

The dashed part of the orbit path shows where the satellite is in the earth's shadow,  

DLR